Location: Brede
(50.9167°N, 0.6000°E)
Time: 03:33:49
(UTC+00:00)

SL-14 R/B - Pass Details

Date: 08 August 2020
Orbit: 517 x 555 km, 82.4° (Epoch: 27 September)

Event Time Altitude Azimuth Distance (km) Brightness Sun altitude
Rises 02:47:28 0° 342° (NNW) 2,706 7.3 -14.0°
Reaches altitude 10° 02:49:46 10° 333° (NNW) 1,802 6.2 -13.8°
Maximum altitude 02:53:21 34° 268° (W) 897 4.0 -13.4°
Enters shadow 02:55:08 22° 221° (SW) 1,181 4.4 -13.2°
